Showing default

WGS 9 (USA 275), 42075

Orbit data source: Space-Track

WGS 9 (USA 275), 42075 is a payload satellite owned by USAF SMC (US) in GEO that was launched on Sun, 19 Mar 2017 UTC via a DELTA 4M+(5,4) launch vehicle from the Air Force Eastern Test Range (AFETR). Payload-class satellites include a variety of spacecraft equipped with specific instruments for various scientific and technological missions. These include communications satellites like Starlink; space stations such as the ISS; scientific satellites like the Hubble; Earth observation satellites from companies like Planet Labs, Umbra, and HawkEye 360; GPS; miniature CubeSats for education and research; and military/defense satellites.

Not visible in the next 10 days
Identifier
42075, 2017-016A
Orbit
GEO
Country
Flag of USUS
Related business
Manufacturer
Boeing/ES
Mission
Operational Defense Communications
Bus & Motor
BSS-702HP, R-4D-15-375
Mass
6,000 kg wet, ~3,400 kg dry
Launch date (UTC)
2017-03-19 (9 years ago)
Launch vehicle
DELTA 4M+(5,4)
Launch site
Air Force Eastern Test Range (AFETR)
Object type
Payload
Rocket body
Debris
Shape & HBR
Box + 2 Pan, 20.4 m
Radar Cross Section
52.962 m², Large (>1 m²)

Expand to show TLE details & history
Last TLE update: 2 days ago

TLE from 2 days ago
0 WGS 9 (USA 275)
1 42075U 17016A   26170.96189723  .00000000  00000-0  00000-0 0  9994
2 42075   0.0189 354.7894 0000365 318.4442 289.2241  1.00270097 33929
Epoch: 2026-06-19T23:05Z
TLE epoch observation values (Epoch: 2026-06-19T23:05:07.920Z)
Latitude
-0.03554°
Longitude
-12.00009°
Altitude
35,786.05 km
Speed
3.075 km/s
True Right ascension
16h 09m 51s
True Declination
0° 02' 08"
Sunlit
Object was in daylight at epoch
Visualization orbit readout
Latitude
Unknown
Longitude
Unknown
Altitude
Unknown
Speed
Unknown
Apparent Right ascension
Unknown
Apparent Declination
Unknown
Sunlit
N/A
Visualization observer readout
Local Sidereal Time
21:33:49
Azimuth
Unknown
Elevation
Unknown
Doppler factor
Unknown
Orbital elements
Apogee altitude
35,789.678 km
Perigee altitude
35,786.599 km
Semi-major axis
42,166.276 km
Eccentricity
0.00004
Inclination
0.0189°
RAAN
354.7894°
Arg. of periapsis
318.4442°
True anomaly
289.22015°
Mean anomaly
289.2241°
Eccentric anomaly
289.22213°
Mean motion
0.25067 °/min
Orbital period
1,436.17 mins
BSTAR
0
Loading maneuver chart data...
Computing Atmospheric mass density...
Loading historical data...
Loading historical data...
Loading historical data...
Loading historical data...
Loading historical data...
Loading historical data...
Loading historical data...
Other satellites on launch #16 in the year 2017 (2017-03-19 UTC)

Documentation

Showing up to 5 results
|